This is the latest recevied weather packets stored in our database for station/object ANJALA. If no packets are shown the sender has not sent any weather packets the latest 10 day(s).
| Time | Temp. | Humidity | Pressure | Rain* | Wind** | Luminosity | Snow |
|---|---|---|---|---|---|---|---|
| 1777693619 | 3.89° C | 98% | - | 0 mm | - | - | - |
| 1777692419 | 2.78° C | 98% | - | 0 mm | - | - | - |
| 1777691219 | 2.78° C | 96% | - | 0 mm | - | - | - |
| 1777690019 | 3.33° C | 97% | - | 0 mm | - | - | - |
| 1777688819 | 3.33° C | 98% | - | 0 mm | - | - | - |
| 1777687618 | 3.33° C | 96% | - | 0 mm | - | - | - |
| 1777686419 | 3.33° C | 96% | - | 0 mm | - | - | - |
| 1777685218 | 3.33° C | 94% | - | 0 mm | - | - | - |
| 1777684018 | 3.89° C | 95% | - | 0 mm | - | - | - |
| 1777682818 | 3.89° C | 96% | - | 0 mm | - | - | - |
| 1777681618 | 4.44° C | 94% | - | 0 mm | - | - | - |
| 1777680418 | 4.44° C | 91% | - | 0 mm | - | - | - |
| 1777679218 | 5° C | 92% | - | 0 mm | - | - | - |
| 1777678018 | 5.56° C | 89% | - | 0 mm | - | - | - |
| 1777676818 | 5.56° C | 90% | - | 0 mm | - | - | - |
| 1777675618 | 6.11° C | 88% | - | 0 mm | - | - | - |
| 1777674418 | 6.11° C | 89% | - | 0 mm | - | - | - |
| 1777673218 | 6.67° C | 88% | - | 0 mm | - | - | - |
| 1777672018 | 6.67° C | 84% | - | 0 mm | - | - | - |
| 1777670817 | 7.78° C | 83% | - | 0 mm | - | - | - |
| 1777669617 | 7.78° C | 79% | - | 0 mm | - | - | - |
| 1777668417 | 8.33° C | 77% | - | 0 mm | - | - | - |
| 1777667217 | 9.44° C | 74% | - | 0 mm | - | - | - |
| 1777666017 | 10° C | 71% | - | 0 mm | - | - | - |
| 1777664817 | 10° C | 70% | - | 0 mm | - | - | - |
* Rain latest hour (hover to see other rain measurements)
** Current wind speed in m/s (hover to see current wind gust speed)